[[[{"header":{"parameterUnit":"kt","parameterCategory":2,"dx":1,"dy":1,"la1":30.253999710083008,"la2":30.299108505249023,"lo1":-89.0895004272461,"lo2":-89.04439544677734,"nx":28,"ny":28,"refTime":"2022-10-17T21:00:00:Z","depth":0,"parameterNumber":1,"parameterNumberName":"U-component_of_WINDS"},"data":[-4.4678,-4.4929,-4.4923,-4.5206,-4.5248,-4.544,-4.5507,-4.5592,-4.5658,-4.5886,-4.6015,-4.6033,-4.6096,-4.6249,-4.6388,-4.6393,-4.6455,-4.6546,-4.6537,-4.6129,-4.6072,-4.6018,-4.596,-4.6559,-4.6559,-4.6963,-4.6967,-4.697,-4.4375,-4.4419,-4.4567,-4.4707,-4.4833,-4.474,-4.4842,-4.4955,-4.5129,-4.5212,-4.534,-4.5539,-4.5696,-4.5728,-4.5878,-4.5994,-4.596,-4.6035,-4.603,-4.6041,-4.5603,-4.5541,-4.606,-4.606,-4.606,-4.606,-4.606,-4.606,-4.3822,-4.3973,-4.4054,-4.4215,-4.4283,-4.4376,-4.4519,-4.4539,-4.4683,-4.484,-4.4803,-4.5001,-4.5082,-4.526,-4.5318,-4.5471,-4.5387,-4.5468,-4.5489,-4.5512,-4.5538,-4.496,-4.5495,-4.5493,-4.5492,-4.5491,-4.549,0,-4.3417,-4.3402,-4.3544,-4.3684,-4.3801,-4.3909,-4.4008,-4.4095,-4.406,-4.4182,-4.4356,-4.4456,-4.4651,-4.4815,-4.4954,-4.4998,-4.4917,-4.4906,-4.4963,-4.4988,-4.499,-4.4996,-4.4285,-4.4893,-4.4888,-4.4884,-4.4881,-4.4879,-4.2863,-4.3039,-4.3121,-4.3221,-4.3274,-4.3437,-4.3533,-4.3489,-4.3593,-4.3707,-4.3842,-4.4004,-4.4134,-4.4414,-4.4437,-4.4583,-4.4547,-4.478,-4.4569,-4.4582,-4.4556,-4.4548,-4.4566,-4.4824,-4.4832,-4.4837,-4.4842,0,-4.2552,-4.2542,-4.2813,-4.2877,-4.2898,-4.3085,-4.3139,-4.3288,-4.3291,-4.3496,-4.3541,-4.3549,-4.3721,-4.3706,-4.39,-4.3887,-4.4195,-4.4152,-4.4165,-4.4158,-4.4368,-4.4351,-4.5047,-4.5136,-4.451,-4.4516,-4.4521,0,-4.2078,-4.2311,-4.2282,-4.2441,-4.2697,-4.2648,-4.2903,-4.2932,-4.3002,-4.3164,-4.3067,-4.322,-4.3176,-4.3328,-4.3309,-4.3557,-4.3592,-4.3599,-4.3593,-4.3612,-4.3612,-4.3671,-4.3645,-4.3565,-4.3562,-4.3559,-4.3556,0,-4.1597,-4.1854,-4.2109,-4.2167,-4.226,-4.2381,-4.2425,-4.2504,-4.26,-4.2719,-4.2781,-4.2924,-4.3004,-4.3116,-4.3092,-4.295,-4.3394,-4.3193,-4.3401,-4.3403,-4.3506,-4.3501,-4.4115,-4.3552,-4.3551,-4.3549,-4.3548,0,-4.1215,-4.1338,-4.1709,-4.1784,-4.1854,-4.2022,-4.2161,-4.2301,-4.2391,-4.2391,-4.2485,-4.2421,-4.2635,-4.2437,-4.2731,-4.2553,-4.2637,-4.2662,-4.2676,-4.27,-4.2482,-4.2836,-4.3418,-4.3481,-4.2713,-4.2707,-4.27,0,-4.0669,-4.1041,-4.1002,-4.1357,-4.1527,-4.1408,-4.1594,-4.1677,-4.1692,-4.1838,-4.1852,-4.2021,-4.187,-4.1921,-4.2068,-4.2092,-4.2323,-4.2059,-4.2275,-4.2284,-4.226,-4.2793,-4.2887,-4.329,-4.2611,-4.262,-4.2627,0,-4.0246,-4.0357,-4.0424,-4.0488,-4.0591,-4.0733,-4.0945,-4.1101,-4.1201,-4.1304,-4.1484,-4.1717,-4.1614,-4.17,-4.1664,-4.1818,-4.2165,-4.1688,-4.1689,-4.1778,-4.2564,-4.2651,-4.2719,-4.2106,-4.2117,-4.2126,-4.2556,0,-3.9678,-3.9862,-4.0039,-4.0184,-4.0291,-4.0512,-4.0498,-4.0611,-4.0565,-4.0576,-4.0838,-4.0905,-4.1066,-4.1137,-4.1095,-4.1451,-4.1391,-4.128,-4.1092,-4.144,-4.1582,-4.164,-4.0881,-4.0875,-4.087,-4.0867,0,0,-3.9161,-3.9425,-3.9378,-3.9583,-3.9672,-3.9547,-3.9785,-3.9855,-4.0004,-4.0068,-3.9961,-4.0303,-4.0364,-4.0684,-4.0791,-4.0855,-4.0919,-4.0799,-4.1273,-4.1319,-4.1361,-4.1513,-4.1573,-4.0858,-4.0856,-4.0855,-4.0853,0,-3.8952,-3.9013,-3.9248,-3.9318,-3.9422,-3.9423,-3.9479,-3.9561,-3.958,-3.9835,-3.9732,-3.9887,-4.0164,-4.0242,-4.0318,-4.0757,-4.0674,-4.0807,-4.1049,-4.1226,-4.1277,-4.1323,-4.1483,-4.154,-4.0842,-4.0842,-4.0843,0,-3.8536,-3.8595,-3.8707,-3.89,-3.8967,-3.9146,-3.8943,-3.914,-3.9273,-3.9131,-3.9388,-3.9424,-3.9527,-3.9831,-3.9966,-3.9874,-4.0452,-4.0267,-4.0296,-4.0313,-4.0483,-4.0546,-4.0601,-3.9873,-3.987,-3.9867,0,0,-3.8358,-3.8529,-3.8581,-3.8854,-3.8903,-3.8908,-3.9002,-3.8967,-3.9062,-3.9101,-3.9147,-3.9243,-3.9402,-3.9509,-3.9658,-3.9993,-4.0013,-4.0148,-4.0194,-4.0231,-4.0268,-4.0448,-4.051,-3.9854,-3.9854,-3.9853,0,0,-3.8274,-3.8345,-3.8282,-3.8597,-3.8689,-3.8761,-3.8929,-3.8854,-3.8987,-3.8961,-3.8913,-3.8937,-3.922,-3.9261,-3.9094,-3.9592,-3.9405,-3.9445,-3.9556,-3.9614,-3.9659,-3.9646,-3.89,0,0,0,0,0,-3.8055,-3.8335,-3.8277,-3.8328,-3.8574,-3.8792,-3.8823,-3.8789,-3.8657,-3.8791,-3.8817,-3.872,-3.9161,-3.9012,-3.9064,-3.9252,-3.9693,-3.9721,-3.9748,-3.997,-4.0031,-4.0082,0,0,0,0,0,0,-3.8074,-3.8137,-3.8269,-3.8353,-3.8407,-3.8781,-3.8551,-3.8549,-3.8642,-3.862,-3.8718,-3.8723,-3.8699,-3.8983,-3.903,-3.921,-3.8884,-3.9704,-3.9728,-3.975,-3.9991,-4.004,-4.0083,0,0,0,0,0,-3.809,-3.814,-3.8543,-3.8349,-3.8396,-3.8418,-3.854,-3.8537,-3.8608,-3.8651,-3.8653,-3.8574,-3.8705,-3.8743,-3.9011,-3.919,-3.8851,-3.8868,-3.972,-3.9739,-3.9756,-4.0015,0,0,0,0,0,0,-3.8101,-3.8139,-3.8551,-3.8565,-3.8241,-3.8396,-3.8419,-3.8526,-3.8632,-3.8638,-3.8503,-3.8485,-3.8713,-3.8741,-3.877,-3.9184,-3.8824,-3.8842,-3.8853,-3.9734,-3.9749,-3.9763,0,0,0,0,0,0,-3.8112,-3.8151,-3.8558,-3.8424,-3.8421,-3.8377,-3.8397,-3.862,-3.8635,-3.8479,-3.8466,-3.8494,-3.8669,-3.8741,-3.8763,-3.9112,-3.8803,-3.882,-3.8832,-3.884,-3.9746,-3.9758,0,0,0,0,0,0,-3.8128,-3.8162,-3.842,-3.8418,-3.8415,-3.8562,-3.8573,-3.8827,-3.8519,-3.8476,-3.849,-3.8477,-3.8673,-3.8694,-3.8759,-3.91,-3.9109,-3.8804,-3.8816,-3.8824,-3.8829,0,0,0,0,0,0,0,-3.8141,-3.7922,-3.8473,-3.8414,-3.8411,-3.8687,-3.8691,-3.8694,-3.8516,-3.8504,-3.8493,-3.8483,-3.8704,-3.8723,-3.8742,-3.9089,0,0,-3.8802,-3.881,0,0,0,0,0,0,0,0,-3.7907,-3.7918,-3.8473,-3.8476,-3.8479,-3.8688,-3.8691,-3.8694,-3.8514,-3.8505,-3.8495,-3.8487,-3.8709,-3.8725,-3.874,0,0,0,0,0,0,0,0,0,0,0,0,0,0,0,-3.8473,-3.8476,0,-3.8688,-3.8691,-3.8693,-3.8513,-3.8505,-3.8497,-3.849,-3.8714,-3.8726,-3.8739,0,0,0,0,0,0,0,0,0,0,0,0,0,0,0,0,0,0,0,0,0,0,0,0,0,0,0,0,0,0,0,0,0,0,0,0,0,0,0,0,0,0,0,0,0,0,0,0,0,0,0,0,0,0,0,0,0,0,0,0,0,0,0,0,0,0,0,0,0]}],[{"header":{"parameterUnit":"kt","parameterCategory":2,"dx":1,"dy":1,"la1":30.253999710083008,"la2":30.299108505249023,"lo1":-89.0895004272461,"lo2":-89.04439544677734,"nx":28,"ny":28,"refTime":"2022-10-17T21:00:00:Z","depth":0,"parameterNumber":2,"parameterNumberName":"V-component_of_WINDS"},"data":[-15.589,-15.6218,-15.6224,-15.6598,-15.6665,-15.6919,-15.7011,-15.7129,-15.7223,-15.7522,-15.7693,-15.7727,-15.7817,-15.8017,-15.8199,-15.8208,-15.8283,-15.8396,-15.8387,-15.7886,-15.7816,-15.7749,-15.7673,-15.8414,-15.8414,-15.8905,-15.891,-15.8913,-15.5517,-15.5589,-15.5791,-15.5988,-15.6158,-15.6053,-15.6198,-15.6346,-15.6575,-15.6693,-15.6862,-15.7124,-15.7329,-15.7381,-15.7576,-15.7723,-15.7681,-15.7775,-15.7763,-15.7778,-15.7242,-15.7162,-15.7805,-15.7805,-15.7805,-15.7805,-15.7805,-15.7805,-15.484,-15.5038,-15.5161,-15.5379,-15.5479,-15.5609,-15.5796,-15.5835,-15.6027,-15.6238,-15.6202,-15.6459,-15.6573,-15.6809,-15.6887,-15.7083,-15.6978,-15.7079,-15.7105,-15.713,-15.7158,-15.6445,-15.7116,-15.7114,-15.7112,-15.7111,-15.7109,0,-15.4346,-15.4337,-15.4531,-15.4726,-15.4884,-15.5035,-15.5172,-15.5287,-15.5263,-15.5423,-15.5653,-15.5785,-15.6043,-15.6255,-15.6438,-15.6498,-15.6399,-15.6389,-15.6459,-15.648,-15.6474,-15.6478,-15.5603,-15.6369,-15.6363,-15.6358,-15.6355,-15.6352,-15.3661,-15.3892,-15.4022,-15.4157,-15.4234,-15.4452,-15.4581,-15.4544,-15.4682,-15.4841,-15.5014,-15.5229,-15.5398,-15.5761,-15.5797,-15.5988,-15.5941,-15.6233,-15.5968,-15.5979,-15.5942,-15.5929,-15.5949,-15.6285,-15.6293,-15.63,-15.6306,0,-15.3274,-15.3281,-15.3639,-15.3745,-15.3778,-15.4019,-15.4106,-15.4299,-15.4314,-15.4581,-15.464,-15.4664,-15.4888,-15.4877,-15.5129,-15.5116,-15.5503,-15.5454,-15.5463,-15.5452,-15.571,-15.5686,-15.6558,-15.6668,-15.5903,-15.591,-15.5916,0,-15.2691,-15.2995,-15.2987,-15.3194,-15.3528,-15.3483,-15.3814,-15.386,-15.3961,-15.417,-15.4059,-15.4256,-15.4212,-15.4407,-15.4388,-15.4703,-15.4751,-15.4758,-15.4749,-15.4768,-15.4767,-15.4836,-15.48,-15.4723,-15.4718,-15.4714,-15.4711,0,-15.2084,-15.2436,-15.2773,-15.2854,-15.2996,-15.3154,-15.3219,-15.3331,-15.3458,-15.3619,-15.37,-15.389,-15.3994,-15.4141,-15.4115,-15.3936,-15.4501,-15.4249,-15.4507,-15.4509,-15.4632,-15.4625,-15.5401,-15.4705,-15.4704,-15.4702,-15.4701,0,-15.1613,-15.1784,-15.2273,-15.2387,-15.2481,-15.2702,-15.2889,-15.3076,-15.3202,-15.3206,-15.3332,-15.3255,-15.3532,-15.3282,-15.3661,-15.3435,-15.3542,-15.3575,-15.3593,-15.3615,-15.3336,-15.3773,-15.4516,-15.4591,-15.3637,-15.3628,-15.362,0,-15.0914,-15.141,-15.1376,-15.1841,-15.2068,-15.1928,-15.2172,-15.2288,-15.2314,-15.2505,-15.253,-15.2749,-15.2562,-15.2628,-15.2818,-15.2851,-15.3145,-15.2811,-15.308,-15.3091,-15.305,-15.3734,-15.3847,-15.4354,-15.3507,-15.3519,-15.3527,0,-15.0373,-15.0547,-15.0633,-15.0722,-15.0872,-15.1062,-15.1343,-15.1552,-15.1682,-15.1825,-15.2057,-15.2365,-15.2234,-15.2346,-15.2303,-15.2501,-15.2944,-15.2334,-15.2336,-15.2442,-15.345,-15.3555,-15.3641,-15.287,-15.2884,-15.2895,-15.3437,0,-14.9656,-14.9906,-15.0139,-15.0342,-15.0487,-15.0779,-15.0772,-15.0924,-15.0869,-15.0889,-15.123,-15.1322,-15.1532,-15.1626,-15.1575,-15.2033,-15.1953,-15.1812,-15.1566,-15.2016,-15.2194,-15.2267,-15.1302,-15.1294,-15.1288,-15.1283,0,0,-14.8984,-14.9342,-14.9297,-14.957,-14.969,-14.9541,-14.9852,-14.995,-15.0152,-15.0236,-15.0099,-15.0548,-15.0629,-15.1043,-15.1182,-15.1268,-15.1347,-15.1191,-15.1803,-15.1861,-15.1914,-15.2105,-15.2181,-15.1272,-15.127,-15.1268,-15.1266,0,-14.8721,-14.8815,-14.9126,-14.9227,-14.9374,-14.9381,-14.9456,-14.9574,-14.9601,-14.9938,-14.9806,-15.0009,-15.037,-15.0471,-15.057,-15.1142,-15.1029,-15.1206,-15.1517,-15.1741,-15.1808,-15.1866,-15.2067,-15.214,-15.1251,-15.1252,-15.1253,0,-14.8185,-14.8275,-14.8426,-14.8694,-14.8789,-14.9026,-14.8768,-14.9031,-14.9205,-14.9024,-14.9359,-14.9409,-14.9544,-14.9939,-15.0115,-14.9995,-15.074,-15.0504,-15.0542,-15.0561,-15.0777,-15.0857,-15.0928,-14.9994,-14.9989,-14.9985,0,0,-14.7958,-14.8191,-14.8274,-14.8637,-14.8706,-14.8721,-14.8847,-14.8806,-14.8934,-14.8986,-14.9048,-14.9174,-14.9381,-14.952,-14.9715,-15.015,-15.0172,-15.0349,-15.0409,-15.0457,-15.0502,-15.0732,-15.0811,-14.9969,-14.9969,-14.9968,0,0,-14.7848,-14.7961,-14.7884,-14.8305,-14.8434,-14.8537,-14.8757,-14.8664,-14.884,-14.8805,-14.8744,-14.8775,-14.9143,-14.9197,-14.898,-14.9626,-14.9384,-14.9436,-14.9578,-14.9653,-14.9711,-14.969,-14.8725,0,0,0,0,0,-14.7576,-14.7946,-14.7876,-14.7946,-14.8284,-14.8576,-14.8618,-14.8579,-14.8408,-14.8583,-14.8619,-14.8491,-14.9066,-14.8872,-14.894,-14.9183,-14.9758,-14.9796,-14.9831,-15.0117,-15.0195,-15.0261,0,0,0,0,0,0,-14.7603,-14.7689,-14.7866,-14.7986,-14.8061,-14.8563,-14.8264,-14.8263,-14.8388,-14.8359,-14.8488,-14.8495,-14.8464,-14.8835,-14.8897,-14.9128,-14.8704,-14.9773,-14.9805,-14.9833,-15.0143,-15.0207,-15.0262,0,0,0,0,0,-14.7625,-14.7693,-14.8247,-14.798,-14.8046,-14.8082,-14.825,-14.8247,-14.8342,-14.84,-14.8403,-14.8302,-14.8472,-14.8521,-14.8871,-14.9101,-14.8661,-14.8684,-14.9793,-14.9819,-14.9841,-15.0175,0,0,0,0,0,0,-14.764,-14.7691,-14.8259,-14.8277,-14.7838,-14.8053,-14.8086,-14.8233,-14.8373,-14.8381,-14.8208,-14.8184,-14.8483,-14.8518,-14.8557,-14.9094,-14.8626,-14.8649,-14.8664,-14.9813,-14.9832,-14.985,0,0,0,0,0,0,-14.7654,-14.7708,-14.8268,-14.8091,-14.8089,-14.8027,-14.8056,-14.8346,-14.8377,-14.8173,-14.8157,-14.8196,-14.8423,-14.8519,-14.8548,-14.9003,-14.8599,-14.8621,-14.8637,-14.8647,-14.9829,-14.9844,0,0,0,0,0,0,-14.7676,-14.7722,-14.8086,-14.8085,-14.8081,-14.8283,-14.8282,-14.8629,-14.823,-14.8169,-14.8193,-14.8176,-14.8427,-14.8455,-14.8542,-14.8987,-14.8999,-14.8599,-14.8615,-14.8626,-14.8633,0,0,0,0,0,0,0,-14.7694,-14.7393,-14.8151,-14.8079,-14.8076,-14.8446,-14.8451,-14.8456,-14.8226,-14.8211,-14.8197,-14.8183,-14.847,-14.8495,-14.852,-14.8973,0,0,-14.8597,-14.8608,0,0,0,0,0,0,0,0,-14.7372,-14.7388,-14.8152,-14.8156,-14.8159,-14.8447,-14.8451,-14.8455,-14.8224,-14.8212,-14.82,-14.8188,-14.8477,-14.8497,-14.8517,0,0,0,0,0,0,0,0,0,0,0,0,0,0,0,-14.8152,-14.8155,0,-14.8447,-14.8451,-14.8454,-14.8222,-14.8212,-14.8202,-14.8193,-14.8482,-14.8499,-14.8515,0,0,0,0,0,0,0,0,0,0,0,0,0,0,0,0,0,0,0,0,0,0,0,0,0,0,0,0,0,0,0,0,0,0,0,0,0,0,0,0,0,0,0,0,0,0,0,0,0,0,0,0,0,0,0,0,0,0,0,0,0,0,0,0,0,0,0,0,0]}]]]